ROST FLYPLASS current weather conditions

sailwx.info

Wind from 280 at 10 knots

Air temperature 7.0° C
Visibility: greater than 5.4 NM
Dewpoint 5.0° C
Present weather: Showers in the vicinity.

Last reported at 2014-Nov-21 16:20 UTC.
Time now 2014-Nov-21 18:05 UTC

Location: N 67°31' E 012°06'.
View on Google Maps.

See reports from other nearby stations

  
Tides and Currents Weather Stations Pressure Air Temp Water Temp Dewpoint Dewpoint Depression Visibility Wind Speed Wind Dir Waves Ship Positions
date/time (UTC)wind fromknots sea level pressurealtimeterstation pressurevisibilityair tempwater tempwave heightnotes
2014-Nov-21 16:50 290 11 5.4 7.0 Showers in the vicinity.
2014-Nov-21 16:20 280 10 5.4 7.0 Showers in the vicinity.
2014-Nov-21 07:50 260 18 5.4 7.0
2014-Nov-21 07:20 240 15 5.4 7.0
2014-Nov-21 06:50 240 14 5.4 7.0
2014-Nov-21 05:50 250 14 5.4 7.0
2014-Nov-20 18:50 220 11 5.4 7.0
2014-Nov-20 18:20 220 10 5.4 7.0 Showers in the vicinity.
2014-Nov-20 17:50 220 9 5.4 6.0 Showers in the vicinity.
2014-Nov-20 16:20 250 8 5.4 6.0 Light rain showers.
2014-Nov-20 15:20 190 7 5.4 6.0
2014-Nov-20 14:50 170 17 5.4 6.0
2014-Nov-20 14:20 170 20 5.4 6.0
2014-Nov-20 13:50 190 13 5.4 6.0
2014-Nov-20 12:50 200 13 5.4 6.0 Light rain.
2014-Nov-20 12:20 200 12 5.4 6.0 Light rain.
2014-Nov-20 11:50 210 13 5.4 6.0 Light rain.
2014-Nov-20 11:20 220 14 5.4 6.0 Light rain.
2014-Nov-20 10:50 190 9 5.4 6.0 Light rain.
2014-Nov-20 10:20 200 12 5.4 6.0
2014-Nov-20 09:20 190 15 5.4 5.0
2014-Nov-20 08:20 180 17 5.4 5.0 Light rain.
2014-Nov-20 07:50 190 15 5.4 5.0 Drizzle rain.
2014-Nov-20 06:50 190 12 5.4 5.0 Light rain drizzle.
2014-Nov-20 06:20 190 12 5.4 5.0 Light rain drizzle.
2014-Nov-20 05:50 190 12 5.4 5.0 Light rain showers.
2014-Nov-19 18:20 5.4 6.0